Location: Newark
(40.9833°N, 0.0333°W)
Time: 01:37:56
(UTC+00:00)

deb Explorer IX - Pass Details

Date: 28 October 2020
Orbit: 537 x 1105 km, 38.8° (Epoch: 02 December)

Event Time Altitude Azimuth Distance (km) Brightness Sun altitude
Rises 06:56:05 0° 258° (WSW) 3,490 ? 4.4°
Reaches altitude 10° 06:58:31 10° 256° (WSW) 2,630 ? 4.8°
Maximum altitude 07:04:56 73° 173° (S) 1,066 ? 5.9°
Drops below altitude 10° 07:12:07 10° 91° (E) 2,929 ? 7.2°
Sets 07:14:58 0° 89° (E) 3,910 ? 7.7°
